Hourly Weather Bolshie Vorobevichi

Today, 20 June, Sunday

Time Temperature Precipitation Wind Pressure Humidity
00:00 +19°C° 0 mm 2 mps 750 mmHg 87%
01:00 +19°C° 0 mm 2 mps 750 mmHg 89%
02:00 +18°C° 0 mm 2 mps 750 mmHg 91%
03:00 +18°C° 0 mm 2 mps 750 mmHg 91%
04:00 +19°C° 0 mm 2 mps 750 mmHg 92%
05:00 +19°C° 0 mm 2 mps 750 mmHg 93%
06:00 +20°C° 0 mm 3 mps 750 mmHg 88%
07:00 +22°C° 0 mm 3 mps 750 mmHg 83%
08:00 +25°C° 0 mm 4 mps 750 mmHg 78%
09:00 +26°C° 0 mm 4 mps 750 mmHg 73%
10:00 +27°C° 0 mm 5 mps 750 mmHg 67%
11:00 +28°C° 0 mm 5 mps 750 mmHg 62%
12:00 +29°C° 0 mm 5 mps 749 mmHg 60%
13:00 +29°C° 0 mm 4 mps 749 mmHg 58%
14:00 +30°C° 0 mm 4 mps 749 mmHg 57%
15:00 +29°C° 0.3 mm 4 mps 749 mmHg 60%
16:00 +29°C° 0.3 mm 4 mps 748 mmHg 64%
17:00 +28°C° 0.3 mm 4 mps 748 mmHg 67%
18:00 +27°C° 0.3 mm 4 mps 748 mmHg 73%
19:00 +26°C° 0.3 mm 3 mps 748 mmHg 79%
20:00 +24°C° 0.3 mm 3 mps 748 mmHg 85%
21:00 +22°C° 0 mm 3 mps 748 mmHg 87%
22:00 +22°C° 0 mm 3 mps 748 mmHg 89%
23:00 +21°C° 0 mm 3 mps 748 mmHg 91%

Tomorrow, 21 June, Monday

Time Temperature Precipitation Wind Pressure Humidity
00:00 +20°C° 0 mm 3 mps 748 mmHg 92%
01:00 +19°C° 0 mm 3 mps 748 mmHg 93%
02:00 +18°C° 0 mm 3 mps 748 mmHg 95%
03:00 +18°C° 0 mm 2 mps 748 mmHg 95%
04:00 +18°C° 0 mm 2 mps 748 mmHg 95%
05:00 +18°C° 0 mm 2 mps 747 mmHg 95%
06:00 +20°C° 0 mm 3 mps 747 mmHg 88%
07:00 +21°C° 0 mm 3 mps 747 mmHg 82%
08:00 +23°C° 0 mm 4 mps 748 mmHg 76%
09:00 +25°C° 0 mm 4 mps 747 mmHg 70%
10:00 +26°C° 0 mm 4 mps 747 mmHg 64%
11:00 +28°C° 0 mm 5 mps 747 mmHg 58%
12:00 +28°C° 0 mm 5 mps 747 mmHg 56%
13:00 +29°C° 0 mm 5 mps 746 mmHg 55%
14:00 +29°C° 0 mm 5 mps 746 mmHg 54%
15:00 +28°C° 0.1 mm 4 mps 746 mmHg 60%
16:00 +27°C° 0.1 mm 4 mps 746 mmHg 66%
17:00 +27°C° 0.1 mm 3 mps 746 mmHg 72%
18:00 +26°C° 0.2 mm 3 mps 746 mmHg 76%
19:00 +25°C° 0.2 mm 3 mps 745 mmHg 80%
20:00 +24°C° 0.2 mm 2 mps 745 mmHg 84%
21:00 +23°C° 0 mm 2 mps 745 mmHg 86%
22:00 +21°C° 0 mm 2 mps 745 mmHg 88%
23:00 +20°C° 0 mm 2 mps 745 mmHg 90%

Day after tomorrow, 22 June, Tuesday

Time Temperature Precipitation Wind Pressure Humidity
00:00 +20°C° 0 mm 2 mps 745 mmHg 91%
01:00 +20°C° 0 mm 2 mps 745 mmHg 91%
02:00 +20°C° 0 mm 2 mps 746 mmHg 91%
03:00 +20°C° 0 mm 2 mps 745 mmHg 92%
04:00 +19°C° 0 mm 2 mps 745 mmHg 93%
05:00 +19°C° 0 mm 2 mps 745 mmHg 94%
06:00 +21°C° 0 mm 3 mps 745 mmHg 89%
07:00 +24°C° 0 mm 3 mps 746 mmHg 84%
08:00 +25°C° 0 mm 3 mps 746 mmHg 79%
09:00 +26°C° 0 mm 4 mps 746 mmHg 74%
10:00 +28°C° 0 mm 4 mps 746 mmHg 68%
11:00 +29°C° 0 mm 4 mps 746 mmHg 63%
12:00 +29°C° 0.1 mm 4 mps 746 mmHg 61%
13:00 +30°C° 0.1 mm 4 mps 746 mmHg 59%
14:00 +32°C° 0.1 mm 4 mps 746 mmHg 57%
15:00 +30°C° 0.1 mm 4 mps 746 mmHg 60%
16:00 +30°C° 0.1 mm 3 mps 746 mmHg 63%
17:00 +29°C° 0.1 mm 2 mps 746 mmHg 67%
18:00 +28°C° 0.1 mm 2 mps 746 mmHg 71%
19:00 +27°C° 0.1 mm 2 mps 746 mmHg 76%
20:00 +26°C° 0.1 mm 2 mps 746 mmHg 81%
21:00 +25°C° 0.2 mm 2 mps 746 mmHg 83%
22:00 +24°C° 0.2 mm 2 mps 746 mmHg 85%
23:00 +24°C° 0.2 mm 2 mps 746 mmHg 87%

23 June, Wednesday

Time Temperature Precipitation Wind Pressure Humidity
00:00 +23°C° 0.1 mm 2 mps 746 mmHg 89%
01:00 +23°C° 0.1 mm 2 mps 746 mmHg 91%
02:00 +21°C° 0.1 mm 2 mps 746 mmHg 93%
03:00 +21°C° 0.2 mm 2 mps 747 mmHg 93%
04:00 +21°C° 0.2 mm 2 mps 747 mmHg 93%
05:00 +21°C° 0.2 mm 2 mps 747 mmHg 93%
06:00 +23°C° 0 mm 2 mps 747 mmHg 89%
07:00 +24°C° 0 mm 3 mps 747 mmHg 84%
08:00 +26°C° 0 mm 3 mps 747 mmHg 80%
09:00 +27°C° 0 mm 3 mps 748 mmHg 74%
10:00 +28°C° 0 mm 3 mps 748 mmHg 69%
11:00 +30°C° 0 mm 4 mps 748 mmHg 64%
12:00 +30°C° 0.1 mm 4 mps 748 mmHg 60%
13:00 +31°C° 0.1 mm 3 mps 748 mmHg 57%
14:00 +31°C° 0.1 mm 3 mps 748 mmHg 54%
15:00 +31°C° 0.1 mm 3 mps 748 mmHg 56%
16:00 +31°C° 0.1 mm 3 mps 748 mmHg 58%
17:00 +31°C° 0.1 mm 2 mps 748 mmHg 60%
18:00 +29°C° 0 mm 2 mps 748 mmHg 66%
19:00 +28°C° 0 mm 2 mps 748 mmHg 72%
20:00 +27°C° 0 mm 1 mps 748 mmHg 77%
21:00 +26°C° 0.1 mm 1 mps 748 mmHg 79%
22:00 +25°C° 0.1 mm 1 mps 748 mmHg 81%
23:00 +24°C° 0.1 mm 1 mps 748 mmHg 83%

24 June, Thursday

Time Temperature Precipitation Wind Pressure Humidity
00:00 +24°C° 0.2 mm 1 mps 748 mmHg 85%
01:00 +24°C° 0.2 mm 1 mps 748 mmHg 87%
02:00 +23°C° 0.2 mm 1 mps 748 mmHg 89%
03:00 +23°C° 0.2 mm 1 mps 748 mmHg 90%
04:00 +23°C° 0.2 mm 1 mps 748 mmHg 90%
05:00 +23°C° 0.2 mm 1 mps 748 mmHg 91%
06:00 +24°C° 0 mm 2 mps 748 mmHg 88%
07:00 +25°C° 0 mm 2 mps 748 mmHg 84%
08:00 +26°C° 0 mm 2 mps 748 mmHg 81%
09:00 +28°C° 0.1 mm 3 mps 748 mmHg 76%
10:00 +29°C° 0.1 mm 3 mps 748 mmHg 71%
11:00 +30°C° 0.1 mm 3 mps 748 mmHg 65%
12:00 +30°C° 0.5 mm 3 mps 748 mmHg 66%
13:00 +30°C° 0.5 mm 3 mps 748 mmHg 66%
14:00 +30°C° 0.5 mm 3 mps 748 mmHg 67%
15:00 +30°C° 0.3 mm 3 mps 748 mmHg 67%
16:00 +30°C° 0.3 mm 3 mps 748 mmHg 68%
17:00 +30°C° 0.3 mm 2 mps 748 mmHg 69%
18:00 +29°C° 0.3 mm 2 mps 747 mmHg 73%
19:00 +27°C° 0.3 mm 2 mps 747 mmHg 77%
20:00 +26°C° 0.3 mm 2 mps 747 mmHg 82%
21:00 +25°C° 0.5 mm 2 mps 746 mmHg 84%
22:00 +24°C° 0.5 mm 2 mps 746 mmHg 87%
23:00 +23°C° 0.5 mm 1 mps 746 mmHg 90%

25 June, Friday

Time Temperature Precipitation Wind Pressure Humidity
00:00 +21°C° 0.2 mm 2 mps 746 mmHg 90%
01:00 +20°C° 0.2 mm 2 mps 746 mmHg 90%
02:00 +20°C° 0.2 mm 2 mps 746 mmHg 90%
03:00 +20°C° 0.2 mm 2 mps 746 mmHg 91%
04:00 +19°C° 0.2 mm 2 mps 745 mmHg 91%
05:00 +19°C° 0.2 mm 2 mps 745 mmHg 92%
06:00 +21°C° 0.4 mm 2 mps 745 mmHg 89%
07:00 +23°C° 0.4 mm 2 mps 745 mmHg 86%
08:00 +24°C° 0.4 mm 3 mps 746 mmHg 84%
09:00 +25°C° 0.4 mm 3 mps 745 mmHg 81%
10:00 +26°C° 0.4 mm 3 mps 745 mmHg 77%
11:00 +27°C° 0.4 mm 3 mps 745 mmHg 74%
12:00 +28°C° 0.8 mm 3 mps 745 mmHg 73%
13:00 +28°C° 0.8 mm 3 mps 745 mmHg 72%
14:00 +28°C° 0.8 mm 4 mps 745 mmHg 71%
15:00 +28°C° 0.3 mm 4 mps 745 mmHg 72%
16:00 +27°C° 0.3 mm 4 mps 745 mmHg 73%
17:00 +27°C° 0.3 mm 4 mps 745 mmHg 75%
18:00 +26°C° 0 mm 4 mps 745 mmHg 79%
19:00 +25°C° 0 mm 3 mps 745 mmHg 84%
20:00 +22°C° 0 mm 3 mps 745 mmHg 89%
21:00 +21°C° 0 mm 2 mps 746 mmHg 91%
22:00 +20°C° 0 mm 2 mps 746 mmHg 93%
23:00 +19°C° 0 mm 2 mps 746 mmHg 95%
Show more